Home > Weather > Brno > Past weeks

Flag for Czech Republic Weather for the Past 2 Weeks in Brno, Czech Republic

Now
36 °F

Light rain. Passing clouds.


Feels Like: 29 °F
Forecast: 30 / 42 °F
Wind: 9 mph from Southwest

Location: Brno / Turany

Current Time: Feb 11, 2016 at 3:34:27 AM

Latest Report: Feb 11, 2016 at 3:00 AM


Visibility: N/A

Pressure: 29.53 "Hg

Humidity: 87%

Dew point: 32 °F

Location of BrnoLocation

Historic Weather in Brno — Graph

°F

Brno Temperature Yesterday

Maximum temperature yesterday: 50 °F (at 12:00 AM)
Minimum temperature yesterday: 36 °F (at 9:00 PM)
Average temperature yesterday: 41 °F

High & Low Weather Summary for the Past Weeks

 TemperatureHumidityPressure
High54 °F (Feb 9, 1:00 PM)100% (Jan 27, 2:00 AM)30.36 "Hg (Jan 27, 2:00 AM)
Low30 °F (Jan 27, 5:00 AM)45% (Feb 5, 2:00 PM)29.24 "Hg (Feb 10, 1:00 AM)
Average41 °F80%29.99 "Hg
* Reported Jan 27 2:00 AM — Feb 11 2:00 AM, Brno, Weather by CustomWeather, © 2016

Note: Actual official high and low records may vary slightly from our data, if they occured in-between our weather recording intervals... More about our weather records

Advertising

Brno Weather History for the Previous 24 Hours

 ConditionsComfort  
Time TempWeatherWind HumidityBarometerVisibility
2:00 AM
Thu, Feb 11
36 °FPassing clouds.7 mph87%29.50 "HgN/A
1:30 AM36 °FPassing clouds.7 mph87%29.50 "HgN/A
1:00 AM34 °FPassing clouds.5 mph87%29.50 "HgN/A
12:00 AM34 °FPassing clouds.9 mph87%29.47 "HgN/A
11:00 PM
Wed, Feb 10
36 °FPassing clouds.8 mph75%29.45 "HgN/A
10:00 PM36 °FClear.8 mph75%29.45 "Hg10 mi
9:30 PM36 °FClear.8 mph75%29.45 "Hg10 mi
9:00 PM36 °FClear.8 mph75%29.42 "Hg10 mi
8:30 PM39 °FPassing clouds.10 mph65%29.42 "HgN/A
8:00 PM39 °FPassing clouds.10 mph65%29.42 "HgN/A
7:30 PM39 °FPassing clouds.13 mph65%29.42 "HgN/A
7:00 PM39 °FPassing clouds.12 mph70%29.42 "HgN/A
6:30 PM39 °FPassing clouds.8 mph70%29.39 "HgN/A
6:00 PM41 °FPassing clouds.8 mph66%29.39 "HgN/A
5:30 PM41 °FMostly cloudy.9 mph70%29.39 "HgN/A
5:00 PM41 °FScattered clouds.10 mph70%29.36 "HgN/A
4:30 PM41 °FPartly sunny.8 mph70%29.36 "HgN/A
4:00 PM41 °FOvercast.8 mph70%29.36 "HgN/A
3:30 PM43 °FPartly sunny.7 mph66%29.33 "HgN/A
3:00 PM43 °FScattered clouds.10 mph66%29.33 "HgN/A
2:30 PM43 °FPartly sunny.9 mph66%29.33 "HgN/A
2:00 PM43 °FMore clouds than sun.9 mph66%29.33 "HgN/A
1:30 PM41 °FScattered clouds.9 mph76%29.30 "HgN/A
1:00 PM41 °FPassing clouds.9 mph81%29.33 "HgN/A
12:30 PM39 °FLight rain. Scattered clouds.14 mph81%29.30 "HgN/A
12:00 PM39 °FLight rain. Mostly cloudy.13 mph87%29.33 "HgN/A
11:30 AM39 °FLight rain. Mostly cloudy.14 mph87%29.33 "HgN/A
11:00 AM39 °FLight rain. Mostly cloudy.14 mph87%29.30 "HgN/A
10:30 AM39 °FLight rain. Cloudy.13 mph87%29.30 "HgN/A
10:00 AM39 °FLight rain. More clouds than sun.16 mph87%29.30 "HgN/A
9:30 AM39 °FLight rain. More clouds than sun.15 mph87%29.30 "HgN/A
9:00 AM41 °FLight rain. Mostly cloudy.12 mph87%29.30 "HgN/A
8:30 AM41 °FLight rain. Overcast.7 mph87%29.30 "HgN/A
8:00 AM41 °FLight rain. Overcast.6 mph87%29.30 "HgN/A
7:30 AM39 °FLight rain. Overcast.6 mph93%29.30 "HgN/A
7:00 AM41 °FLight rain. Overcast.5 mph87%29.30 "HgN/A
6:30 AM41 °FLight rain. Partly cloudy.5 mph87%29.30 "HgN/A
6:00 AM41 °FLight rain. Mostly cloudy.8 mph81%29.30 "HgN/A
5:30 AM41 °FLight rain. Overcast.8 mph87%29.30 "HgN/A
5:00 AM41 °FLight rain. Overcast.10 mph87%29.30 "HgN/A
4:30 AM43 °FLight rain. Overcast.14 mph81%29.30 "Hg5 mi
4:00 AM43 °FLight rain. Overcast.12 mph87%29.27 "Hg5 mi
3:30 AM43 °FLight rain. Overcast.14 mph87%29.27 "HgN/A
3:00 AM46 °FLight rain. Mostly cloudy.7 mph87%29.27 "HgN/A
Weather by CustomWeather, © 2016

See weather overviewHow to use our weather pages